Weather History for Djanet, Algeria

Change the Weather History Date:

Tuesday, February 26, 2013

  Actual Average Record
Temperature  
Mean Temperature 66 °F -  
Max Temperature 84 °F 78 °F - ()
Min Temperature 49 °F 54 °F - ()
Cooling Degree Days 2    
Growing Degree Days 16 (Base 50)    
Moisture  
Dew Point 22 °F    
Average Humidity 17    
Maximum Humidity 31    
Minimum Humidity 4    
Precipitation  
Precipitation 0.00 in 0.00 in - ()
Sea Level Pressure  
Sea Level Pressure 30.02 in    
Wind  
Wind Speed 8 mph ()    
Max Wind Speed 17 mph    
Max Gust Speed -    
Visibility 1.5 miles    
Events      
T = Trace of Precipitation, MM = Missing Value Source: Averaged Metar Reports

Daily Weather History Graph

Daily Weather History Graph

Search for Another Location

Airport:

Trip Planner

Search our weather history database for the weather conditions in past years. The results will help you decide how hot, cold, wet, or windy it might be!

Date:

Astronomy

Feb. 26, 2013 Rise Set
Actual Time 6:47 AM CET 6:23 PM CET
Civil Twilight 6:24 AM CET 6:46 PM CET
Nautical Twilight 5:57 AM CET 7:12 PM CET
Astronomical Twilight 5:31 AM CET 7:38 PM CET
Moon 7:09 PM CET 6:49 AM CET
Length of Visible Light 12h 21m
Length of Day
11h 36m
Full, 100% of the Moon is Illuminated
Feb 26
Full
Mar 4
Last Quarter
Mar 11
New
Mar 19
First Quarter
Mar 27
Full

Hourly Weather History & Observations

Time (CET) Temp. Dew Point Humidity Pressure Visibility Wind Dir Wind Speed Gust Speed Precip Events Conditions
12:00 AM 60.8 °F 17.6 °F 19% 30.01 in 2.5 mi East 13.8 mph - N/A   Haze
1:00 AM 60 °F 19 °F 10%  in 2 mi East 11.5 mph - -   Widespread Dust
1:00 AM 62.6 °F 19.4 °F 19% 30.01 in 2.5 mi East 11.5 mph - N/A   Haze
2:00 AM 59.0 °F 19.4 °F 22% 30.01 in 2.5 mi East 12.7 mph - N/A   Haze
3:00 AM 59.0 °F 17.6 °F 20% 30.01 in 2.2 mi East 12.7 mph - N/A   Haze
4:00 AM 56 °F 19 °F 13%  in 2 mi East 11.5 mph - -   Widespread Dust
4:00 AM 57.2 °F 19.4 °F 23% 30.01 in 1.9 mi East 11.5 mph - N/A   Haze
5:00 AM 53.6 °F 17.6 °F 24% 30.01 in 1.6 mi Calm Calm - N/A   Haze
6:00 AM 55.4 °F 19.4 °F 25% 30.01 in 1.6 mi Calm Calm - N/A   Haze
7:00 AM 51 °F 19 °F 16%  in 1 mi East 9.2 mph - -   Widespread Dust
7:00 AM 50.0 °F 19.4 °F 30% 30.04 in 1.2 mi East 9.2 mph - N/A   Haze
8:00 AM 57.2 °F 26.6 °F 31% 30.04 in 1.2 mi East 11.5 mph - N/A   Haze
9:00 AM 60.8 °F 26.6 °F 27% 30.06 in 1.2 mi Variable 2.3 mph - N/A   Haze
10:00 AM 68 °F 28 °F 13%  in 1 mi Calm Calm - -   Widespread Dust
10:00 AM 68.0 °F 28.4 °F 23% 30.06 in 1.2 mi Calm Calm - N/A   Haze
11:00 AM 77.0 °F 30.2 °F 18% 30.06 in 1.2 mi SE 4.6 mph - N/A   Haze
11:15 AM 77.0 °F 30.2 °F 18% 30.06 in 1.9 mi SE 11.5 mph - N/A   Haze
12:00 PM 77.0 °F 26.6 °F 16% 30.06 in 1.9 mi SE 13.8 mph - N/A   Haze
1:00 PM 80 °F 21 °F 5%  in 2 mi South 12.7 mph - -   Widespread Dust
1:00 PM 80.6 °F 21.2 °F 11% 30.04 in 1.9 mi South 12.7 mph - N/A   Haze
2:00 PM 82.4 °F 21.2 °F 10% 30.01 in 1.9 mi South 13.8 mph - N/A   Haze
3:00 PM 82.4 °F 21.2 °F 10% 30.01 in 1.2 mi South 17.3 mph - N/A   Haze
4:00 PM 84 °F 22 °F 4%  in 1 mi South 9.2 mph - -   Widespread Dust
4:00 PM 84.2 °F 23.0 °F 11% 30.01 in 1.2 mi South 9.2 mph - N/A   Haze
5:00 PM 82.4 °F 21.2 °F 10% 29.98 in 1.2 mi South 9.2 mph - N/A   Haze
6:00 PM - - N/A% 30.01 in 1.2 mi South 9.2 mph - N/A   Haze
7:00 PM 76 °F 28 °F 8%  in 1 mi Calm Calm - -  
7:00 PM 75.2 °F 26.6 °F 17% 29.98 in 1.2 mi Calm Calm - N/A   Haze
8:00 PM 68.0 °F 23.0 °F 18% 30.01 in 1.2 mi Calm Calm - N/A   Haze
9:00 PM 64.4 °F 19.4 °F 18% 30.04 in 1.2 mi NNE 11.5 mph - N/A   Haze
10:00 PM 64 °F 20 °F 9%  in 1 mi ENE 8.1 mph - -  
10:00 PM 64.4 °F 19.4 °F 18% 30.04 in 1.2 mi ENE 8.1 mph - N/A   Haze
11:00 PM 64.4 °F 21.2 °F 19% 30.04 in 1.2 mi NNE 4.6 mph - N/A   Haze